Location: Plum
(40.5000°N, 79.7500°W)
Time: 23:57:53
(UTC-04:00)

MOZ.5/SAFIR/RUBIN 5/SL-8 - Visible Passes

Search period start: 27 May 2016 00:00
Search period end: 06 June 2016 00:00
Orbit: 679 x 706 km, 97.9° (Epoch: 27 May)

Date Brightness Start Highest point End Pass type
(mag) Time Alt. Az. Time Alt. Az. Time Alt. Az.
27 May 6.9 03:38:37 10° E 03:40:12 12° ENE 03:41:47 10° NE visible
27 May 3.8 05:12:25 10° S 05:17:05 79° WSW 05:21:50 10° NNW visible
28 May 6.0 04:15:36 10° SE 04:19:32 27° ENE 04:23:30 10° N visible
29 May 4.2 04:54:27 10° SSE 04:59:06 69° ENE 05:03:49 10° N visible
30 May 6.6 03:58:27 10° ESE 04:01:41 19° ENE 04:04:59 10° NNE visible
31 May 5.0 04:36:43 10° SE 04:41:10 45° ENE 04:45:40 10° N visible
01 Jun 6.8 03:41:49 10° E 03:43:54 13° ENE 03:46:01 10° NE visible
01 Jun 3.8 05:16:12 10° S 05:20:52 71° WSW 05:25:36 10° NNW visible
02 Jun 5.8 04:19:11 10° SE 04:23:16 30° ENE 04:27:23 10° N visible
03 Jun 4.0 04:58:11 10° SSE 05:02:51 77° ENE 05:07:37 10° N visible
04 Jun 6.4 04:01:57 10° ESE 04:05:25 21° ENE 04:08:56 10° NNE visible
05 Jun 4.8 04:40:23 10° SSE 04:44:54 50° ENE 04:49:31 10° N visible
